Weather in Tykhonovychi

Ukraine / Chernihiv Region     51°56′45″N   32°10′36″E
temp.,
°C
wind,
m/s
gust,
m/s
humid.,
%
clouds,
%
prec.,
mm/h
press.,
hPa
HPBL,
m
9 december, thu
thu923:00−3ne61296100 0.0 1014344
02:00−2ne51096100 0.3 1014331
05:00−2ne51195100 0.2 1015319
08:00−2ne51195100 0.2 1016343
11:00−1ne51195100 0.1 1017310
14:000ne51096100 0.1 1018318
17:000ene51196100 0.0 1018354
20:000ene51196100 0.0 1019366
10 december, fri
fri1023:00+1ene51198100 0.0 1020350
02:00+1e51199100 0.0 1020323
05:00+1e511100100 0.0 1019297
08:00+3ese512100100 0.0 1020293
11:00+4ese513100100 0.0 1020340
14:00+4ese61399100 0.0 1019371
17:00+5ese71495100 0.0 1019458
20:00+5se81791100 0.1 1019520
11 december, sat
sat1123:00+5se81790100 0.0 1019530
02:00+5se81791100 0.0 1020524
05:00+4se81791100 0.0 1020532
08:00+4ese71787100 0.0 1021550
11:00+4ese91980100 0.0 1020662
14:00+5se91776100 0.0 1020787
17:00+4se81583100 0.2 1021621
20:00+4se71481100 0.3 1022471
12 december, sun
sun1223:00+4se61282100 0.0 1024372
02:00+3se51185100 0.0 1025339
05:00+2ese51188100 0.0 1025302
08:00+1ese51289100 0.0 1026324
11:00+3ese61380100 0.0 1026431
14:00+3ese51275100 0.0 1025469
17:00+2ese61374100 0.0 1025450
20:00+2ese61373100 0.0 1024429
13 december, mon
mon1323:00+2ese51271100 0.0 1024436
02:00+2ese51168100 0.0 1024425
05:00+1e61266100 0.0 1023393
08:00+1e51165100 0.0 1023412
11:00+2e51163100 0.0 1022542
14:00+2ese51062100 0.0 1021607
17:00+1ese4965100 0.0 1022474
20:00+1ese4868100 0.0 1022337